NJE225 EDDK-EHAM

Flight info

Callsign NJE225
Flight time 0h 37m
Altitude 22000
Route NVO3B NVO Y868 SOGRI L608 BUB Y28 HELEN
Aircraft C750/M-SBDE3FGHRWXY/S

Departure

Time 2026-05-06 19:33
Airport Cologne Bonn Airport (EDDK)

Arrival

Time 2026-05-06 20:10
Airport Amsterdam Airport Schiphol (EHAM)
Time Latitude Longitude Altitude Speed Heading
2026-05-06 18:58 50.88350 7.12017 231 ft 0 kts 36°
2026-05-06 19:16 50.88348 7.12015 229 ft 3 kts 36°
2026-05-06 19:17 50.88326 7.11991 231 ft 4 kts 33°
2026-05-06 19:17 50.88308 7.11972 231 ft 3 kts 37°
2026-05-06 19:17 50.88291 7.11942 231 ft 4 kts 73°
2026-05-06 19:17 50.88291 7.11905 231 ft 4 kts 119°
2026-05-06 19:18 50.88296 7.11893 231 ft 0 kts 126°
2026-05-06 19:20 50.88294 7.11900 231 ft 4 kts 110°
2026-05-06 19:20 50.88282 7.11970 230 ft 7 kts 127°
2026-05-06 19:21 50.88237 7.12069 230 ft 13 kts 127°
2026-05-06 19:21 50.88183 7.12186 229 ft 13 kts 126°
2026-05-06 19:21 50.88150 7.12311 229 ft 12 kts 85°
2026-05-06 19:21 50.88131 7.12426 229 ft 11 kts 131°
2026-05-06 19:22 50.88064 7.12530 229 ft 16 kts 137°
2026-05-06 19:22 50.87987 7.12642 229 ft 9 kts 137°
2026-05-06 19:22 50.87933 7.12641 229 ft 11 kts 209°
2026-05-06 19:22 50.87837 7.12614 229 ft 15 kts 168°
2026-05-06 19:23 50.87755 7.12718 229 ft 20 kts 137°
2026-05-06 19:23 50.87624 7.12908 229 ft 28 kts 136°
2026-05-06 19:23 50.87479 7.13114 229 ft 27 kts 138°
2026-05-06 19:23 50.87342 7.13318 229 ft 27 kts 136°
2026-05-06 19:24 50.87202 7.13518 232 ft 29 kts 137°
2026-05-06 19:24 50.87037 7.13758 239 ft 34 kts 137°
2026-05-06 19:24 50.86878 7.13989 251 ft 28 kts 137°
2026-05-06 19:24 50.86776 7.14130 251 ft 13 kts 159°
2026-05-06 19:25 50.86708 7.14173 254 ft 9 kts 137°
2026-05-06 19:25 50.86685 7.14207 256 ft 0 kts 138°
2026-05-06 19:26 50.86673 7.14224 256 ft 11 kts 137°
2026-05-06 19:26 50.86595 7.14338 258 ft 21 kts 137°
2026-05-06 19:26 50.86492 7.14489 263 ft 18 kts 137°
2026-05-06 19:26 50.86392 7.14633 269 ft 20 kts 137°
2026-05-06 19:27 50.86334 7.14717 272 ft 5 kts 137°
2026-05-06 19:27 50.86318 7.14740 273 ft 0 kts 137°
2026-05-06 19:27 50.86315 7.14743 273 ft 4 kts 137°
2026-05-06 19:27 50.86263 7.14820 276 ft 14 kts 137°
2026-05-06 19:28 50.86197 7.14915 280 ft 14 kts 137°
2026-05-06 19:28 50.86112 7.15039 283 ft 17 kts 137°
2026-05-06 19:28 50.86045 7.15174 286 ft 15 kts 103°
2026-05-06 19:28 50.86090 7.15332 287 ft 18 kts 31°
2026-05-06 19:29 50.86189 7.15346 285 ft 6 kts 348°
2026-05-06 19:29 50.86223 7.15335 285 ft 0 kts 348°
2026-05-06 19:30 50.86227 7.15333 285 ft 7 kts 348°
2026-05-06 19:31 50.86348 7.15314 282 ft 19 kts 17°
2026-05-06 19:31 50.86390 7.15309 281 ft 0 kts 317°
2026-05-06 19:32 50.86407 7.15283 280 ft 25 kts 317°
2026-05-06 19:33 50.86830 7.14668 263 ft 135 kts 317°
2026-05-06 19:33 50.87601 7.13548 573 ft 165 kts 318°
2026-05-06 19:33 50.88520 7.12237 1160 ft 187 kts 319°
2026-05-06 19:33 50.89487 7.10872 2337 ft 184 kts 319°
2026-05-06 19:34 50.90434 7.09487 3382 ft 188 kts 319°
2026-05-06 19:34 50.91168 7.07728 4295 ft 199 kts 289°
2026-05-06 19:34 50.91221 7.05522 4952 ft 218 kts 262°
2026-05-06 19:34 50.90726 7.03010 5036 ft 258 kts 253°
2026-05-06 19:35 50.90080 7.00234 5813 ft 268 kts 252°
2026-05-06 19:35 50.89474 6.97444 7023 ft 271 kts 255°
2026-05-06 19:35 50.88890 6.94605 8063 ft 280 kts 255°
2026-05-06 19:35 50.88265 6.91632 9214 ft 287 kts 254°
2026-05-06 19:36 50.87615 6.88600 10177 ft 297 kts 254°
2026-05-06 19:36 50.86928 6.85376 10576 ft 322 kts 254°
2026-05-06 19:36 50.86183 6.81867 10784 ft 350 kts 253°
2026-05-06 19:36 50.85385 6.78152 11442 ft 357 kts 253°
2026-05-06 19:37 50.84582 6.74427 12380 ft 358 kts 253°
2026-05-06 19:37 50.83780 6.70677 13228 ft 361 kts 253°
2026-05-06 19:37 50.82969 6.66896 14037 ft 364 kts 253°
2026-05-06 19:37 50.82467 6.64365 14483 ft 365 kts 257°
2026-05-06 19:38 50.82355 6.59019 15367 ft 365 kts 273°
2026-05-06 19:38 50.82413 6.54992 16118 ft 367 kts 271°
2026-05-06 19:38 50.82425 6.50941 16899 ft 370 kts 271°
2026-05-06 19:38 50.82469 6.46844 17660 ft 374 kts 271°
2026-05-06 19:39 50.82539 6.42712 18408 ft 378 kts 271°
2026-05-06 19:39 50.82592 6.38595 19083 ft 382 kts 271°
2026-05-06 19:39 50.82630 6.34359 19755 ft 388 kts 271°
2026-05-06 19:39 50.82674 6.29992 19900 ft 408 kts 271°
2026-05-06 19:40 50.82728 6.25449 20531 ft 408 kts 271°
2026-05-06 19:40 50.82775 6.21023 21648 ft 402 kts 270°
2026-05-06 19:40 50.82816 6.16533 21906 ft 417 kts 270°
2026-05-06 19:40 50.82857 6.11839 21909 ft 436 kts 270°
2026-05-06 19:41 50.82903 6.06957 21919 ft 452 kts 270°
2026-05-06 19:41 50.82944 6.01916 21918 ft 462 kts 270°
2026-05-06 19:41 50.82856 5.96865 21915 ft 457 kts 268°
2026-05-06 19:41 50.82745 5.91838 21917 ft 462 kts 268°
2026-05-06 19:42 50.82643 5.86723 21919 ft 463 kts 268°
2026-05-06 19:42 50.82540 5.81627 21920 ft 463 kts 268°
2026-05-06 19:42 50.82423 5.76527 21920 ft 465 kts 268°
2026-05-06 19:42 50.82305 5.71418 21920 ft 465 kts 268°
2026-05-06 19:43 50.82190 5.66305 21920 ft 464 kts 268°
2026-05-06 19:43 50.82076 5.61271 21933 ft 463 kts 268°
2026-05-06 19:43 50.82322 5.56191 21917 ft 463 kts 279°
2026-05-06 19:43 50.83071 5.51237 21920 ft 464 kts 287°
2026-05-06 19:44 50.84239 5.46466 21925 ft 465 kts 292°
2026-05-06 19:44 50.85469 5.41738 21936 ft 465 kts 291°
2026-05-06 19:44 50.86664 5.36990 21932 ft 465 kts 291°
2026-05-06 19:44 50.87857 5.32227 21933 ft 465 kts 291°
2026-05-06 19:45 50.89067 5.27482 21932 ft 465 kts 292°
2026-05-06 19:45 50.90278 5.22740 21938 ft 465 kts 291°
2026-05-06 19:45 50.91474 5.17977 21937 ft 465 kts 291°
2026-05-06 19:45 50.92663 5.13228 21933 ft 463 kts 291°
2026-05-06 19:46 50.93833 5.08585 21947 ft 463 kts 291°
2026-05-06 19:46 50.95027 5.03841 21945 ft 463 kts 291°
2026-05-06 19:46 50.96213 4.99091 21942 ft 463 kts 291°
2026-05-06 19:46 50.97395 4.94345 21945 ft 463 kts 291°
2026-05-06 19:47 50.98582 4.89589 21953 ft 463 kts 291°
2026-05-06 19:47 50.99765 4.84835 21952 ft 463 kts 291°
2026-05-06 19:47 51.00942 4.80086 21949 ft 463 kts 291°
2026-05-06 19:47 51.02122 4.75315 21947 ft 463 kts 291°
2026-05-06 19:48 51.03300 4.70552 21947 ft 463 kts 291°
2026-05-06 19:48 51.04473 4.65793 21946 ft 463 kts 291°
2026-05-06 19:48 51.05644 4.61030 21962 ft 463 kts 291°
2026-05-06 19:48 51.06815 4.56255 21967 ft 463 kts 291°
2026-05-06 19:49 51.07986 4.51476 21968 ft 463 kts 291°
2026-05-06 19:49 51.09151 4.46706 21969 ft 463 kts 291°
2026-05-06 19:49 51.10317 4.41922 21972 ft 463 kts 291°
2026-05-06 19:49 51.11467 4.37196 21970 ft 463 kts 291°
2026-05-06 19:50 51.12629 4.32412 21968 ft 463 kts 291°
2026-05-06 19:50 51.13787 4.27629 21973 ft 463 kts 291°
2026-05-06 19:50 51.14944 4.22844 21967 ft 463 kts 290°
2026-05-06 19:50 51.16100 4.18052 21968 ft 463 kts 290°
2026-05-06 19:51 51.17251 4.13269 21962 ft 463 kts 290°
2026-05-06 19:51 51.18401 4.08478 21957 ft 463 kts 290°
2026-05-06 19:51 51.19757 4.03828 21922 ft 464 kts 300°
2026-05-06 19:51 51.21763 3.99796 21934 ft 465 kts 313°
2026-05-06 19:52 51.24189 3.96382 21936 ft 465 kts 321°
2026-05-06 19:52 51.26863 3.93466 21945 ft 466 kts 327°
2026-05-06 19:52 51.29720 3.90986 21950 ft 468 kts 333°
2026-05-06 19:52 51.32677 3.88952 21950 ft 469 kts 338°
2026-05-06 19:53 51.35786 3.87311 21693 ft 469 kts 343°
2026-05-06 19:53 51.38929 3.86232 21527 ft 448 kts 351°
2026-05-06 19:53 51.42038 3.85927 21029 ft 442 kts 358°
2026-05-06 19:53 51.44983 3.86131 20377 ft 409 kts
2026-05-06 19:54 51.47775 3.86449 19738 ft 395 kts
2026-05-06 19:54 51.50505 3.86509 19113 ft 390 kts 357°
2026-05-06 19:54 51.53207 3.86276 18519 ft 388 kts 355°
2026-05-06 19:54 51.55894 3.86120 17882 ft 384 kts 358°
2026-05-06 19:55 51.58556 3.86137 17207 ft 380 kts 359°
2026-05-06 19:55 51.61183 3.86134 16551 ft 376 kts 358°
2026-05-06 19:55 51.63784 3.86037 15907 ft 372 kts 357°
2026-05-06 19:55 51.66360 3.85941 15168 ft 368 kts 357°
2026-05-06 19:56 51.68876 3.85894 14439 ft 362 kts 358°
2026-05-06 19:56 51.71365 3.86289 13634 ft 361 kts 13°
2026-05-06 19:56 51.73612 3.87918 12783 ft 347 kts 31°
2026-05-06 19:56 51.75435 3.90333 11989 ft 331 kts 40°
2026-05-06 19:57 51.77107 3.92775 11241 ft 318 kts 41°
2026-05-06 19:57 51.78728 3.95115 10502 ft 307 kts 40°
2026-05-06 19:57 51.80307 3.97376 9768 ft 299 kts 40°
2026-05-06 19:57 51.81325 3.98843 9396 ft 290 kts 41°
2026-05-06 19:58 51.82796 4.00973 9076 ft 281 kts 41°
2026-05-06 19:58 51.84245 4.03068 8714 ft 278 kts 41°
2026-05-06 19:58 51.85681 4.05143 8349 ft 276 kts 41°
2026-05-06 19:58 51.87105 4.07206 7984 ft 273 kts 41°
2026-05-06 19:59 51.88520 4.09256 7619 ft 271 kts 41°
2026-05-06 19:59 51.89921 4.11288 7263 ft 269 kts 41°
2026-05-06 19:59 51.91272 4.13369 6920 ft 266 kts 49°
2026-05-06 19:59 51.92223 4.15878 6948 ft 269 kts 59°
2026-05-06 20:00 51.93137 4.18493 6951 ft 268 kts 59°
2026-05-06 20:00 51.94073 4.21107 6954 ft 268 kts 59°
2026-05-06 20:00 51.95011 4.23724 6951 ft 269 kts 59°
2026-05-06 20:00 51.95943 4.26344 6951 ft 269 kts 59°
2026-05-06 20:01 51.96877 4.28975 6946 ft 269 kts 59°
2026-05-06 20:01 51.97812 4.31608 6947 ft 269 kts 59°
2026-05-06 20:01 51.98549 4.33686 6974 ft 269 kts 58°
2026-05-06 20:01 51.99483 4.36321 6972 ft 270 kts 58°
2026-05-06 20:02 52.00416 4.38957 6975 ft 271 kts 59°
2026-05-06 20:02 52.01340 4.41570 6971 ft 268 kts 58°
2026-05-06 20:02 52.02276 4.44220 6972 ft 268 kts 59°
2026-05-06 20:02 52.03207 4.46857 6836 ft 271 kts 59°
2026-05-06 20:03 52.04133 4.49482 6513 ft 269 kts 58°
2026-05-06 20:03 52.05062 4.52121 6142 ft 265 kts 59°
2026-05-06 20:03 52.05964 4.54684 5822 ft 263 kts 59°
2026-05-06 20:03 52.06872 4.57270 5480 ft 262 kts 59°
2026-05-06 20:04 52.07771 4.59830 5136 ft 260 kts 59°
2026-05-06 20:04 52.08667 4.62382 4794 ft 260 kts 59°
2026-05-06 20:04 52.09557 4.64923 4442 ft 257 kts 58°
2026-05-06 20:04 52.10416 4.67380 4100 ft 237 kts 59°
2026-05-06 20:05 52.11193 4.69606 3809 ft 221 kts 59°
2026-05-06 20:05 52.11952 4.71773 3529 ft 218 kts 59°
2026-05-06 20:05 52.12698 4.73901 3241 ft 213 kts 59°
2026-05-06 20:05 52.13684 4.75673 2900 ft 214 kts 35°
2026-05-06 20:06 52.15082 4.76444 2633 ft 213 kts 10°
2026-05-06 20:06 52.16507 4.76574 2410 ft 202 kts
2026-05-06 20:06 52.17905 4.76694 2146 ft 190 kts
2026-05-06 20:06 52.19089 4.76802 1927 ft 161 kts
2026-05-06 20:07 52.20199 4.76915 1781 ft 148 kts
2026-05-06 20:07 52.21114 4.76987 1585 ft 118 kts
2026-05-06 20:07 52.21886 4.77079 1432 ft 108 kts 11°
2026-05-06 20:07 52.22643 4.77182 1295 ft 110 kts
2026-05-06 20:08 52.23413 4.77268 1170 ft 111 kts
2026-05-06 20:08 52.24182 4.77314 985 ft 110 kts
2026-05-06 20:08 52.24929 4.77362 851 ft 106 kts
2026-05-06 20:08 52.25684 4.77427 720 ft 110 kts
2026-05-06 20:09 52.26446 4.77502 560 ft 112 kts
2026-05-06 20:09 52.27224 4.77577 444 ft 110 kts
2026-05-06 20:09 52.27986 4.77624 351 ft 110 kts
2026-05-06 20:09 52.28764 4.77711 262 ft 112 kts
2026-05-06 20:10 52.29522 4.77874 158 ft 109 kts 20°
2026-05-06 20:10 52.30143 4.78499 23 ft 104 kts 39°
2026-05-06 20:10 52.30634 4.79190 -8 ft 76 kts 41°
2026-05-06 20:10 52.30878 4.79548 -8 ft 22 kts 41°
2026-05-06 20:11 52.30886 4.79649 -8 ft 9 kts 130°
2026-05-06 20:11 52.30854 4.79709 -6 ft 6 kts 132°
2026-05-06 20:11 52.30847 4.79721 -6 ft 0 kts 132°
2026-05-06 20:12 52.30834 4.79744 -6 ft 3 kts 132°
2026-05-06 20:12 52.30838 4.79838 -6 ft 14 kts 53°
2026-05-06 20:13 52.30913 4.79947 -6 ft 14 kts 41°
2026-05-06 20:13 52.30984 4.80051 -6 ft 12 kts 42°
2026-05-06 20:13 52.31039 4.80129 -6 ft 10 kts 41°
2026-05-06 20:13 52.31063 4.80171 -6 ft 0 kts 62°
2026-05-06 20:14 52.31063 4.80172 -6 ft 0 kts 62°
2026-05-06 20:14 52.31065 4.80177 -6 ft 1 kts 62°
2026-05-06 20:14 52.31068 4.80197 -6 ft 6 kts 83°
2026-05-06 20:14 52.31040 4.80274 -6 ft 8 kts 128°
2026-05-06 20:15 52.31048 4.80314 -6 ft 3 kts 44°
2026-05-06 20:15 52.31066 4.80338 -6 ft 3 kts 36°
2026-05-06 20:15 52.31088 4.80319 -6 ft 5 kts 311°
2026-05-06 20:15 52.31095 4.80306 -6 ft 0 kts 311°